Location: Unspecified
(0.0000°N, 0.0000°E)
Time: 07:14:42
(UTC+00:00)

Envisat - Pass Details

Date: 27 November 2018
Orbit: 764 x 766 km, 98.1° (Epoch: 18 October)

Event Time Altitude Azimuth Distance (km) Brightness Sun altitude
Rises 19:31:48 0° 174° (S) 3,228 6.5 -24.1°
Reaches altitude 10° 19:34:07 10° 177° (S) 2,299 5.7 -24.7°
Maximum altitude 19:39:08 64° 258° (WSW) 843 3.3 -25.8°
Drops below altitude 10° 19:44:07 10° 339° (NNW) 2,290 5.4 -27.0°
Enters shadow 19:44:55 - 340° (NNW) 2,607 5.7 -27.1°
